Flag for Germany Weather past 2 weeks in Kulmbach, Bavaria, Germany

Now
65 °F

Light rain. Overcast.


Feels Like: 65 °F
Forecast: 60 / 85 °F
Wind: 3 mph from North

Location: Hof

Current Time: Aug 28, 2015 at 5:03:56 AM

Latest Report: Aug 28, 2015 at 4:00 AM


Visibility: 22 mi

Pressure: 29.91 "Hg

Humidity: 80%

Dew point: 58 °F

Location of KulmbachLocation

Historic Weather in Kulmbach — Graph

°F

Kulmbach temperature yesterday

Maximum temperature yesterday: 81 °F (at 6:00 PM)
Minimum temperature yesterday: 56 °F (at 4:00 AM)
Average temperature yesterday: 69 °F

Past Weeks' High & Low Weather Summary

 TemperatureHumidityPressure
High88 °F (Aug 13, 5:00 PM)100% (Aug 16, 8:00 PM)30.31 "Hg (Aug 16, 8:00 PM)
Low47 °F (Aug 22, 6:00 AM)33% (Aug 13, 7:00 PM)29.65 "Hg (Aug 14, 6:00 PM)
Average63 °F74%29.96 "Hg
* Reported Aug 13 4:00 AM — Aug 28 4:00 AM, Kulmbach, Weather by CustomWeather, © 2015

Note: Actual official high and low records may vary slightly from our data, if they occured in-between our weather recording intervals... More about our weather records

Advertising

Kulmbach weather history for previous 24 hours

 ConditionsComfort  
Time TempWeatherWind HumidityBarometerVisibility
4:00 AM
Fri, Aug 28
65 °FLight rain. Overcast.3 mph80%29.91 "Hg22 mi
3:00 AM66 °FOvercast.1 mph75%29.85 "Hg31 mi
2:00 AM69 °FOvercast.2 mph63%29.84 "Hg40 mi
1:00 AM72 °FOvercast.1 mph51%29.82 "Hg40 mi
10:00 PM
Thu, Aug 27
74 °FOvercast.3 mph50%29.81 "Hg43 mi
9:00 PM75 °FOvercast.5 mph47%29.81 "Hg43 mi
8:00 PM77 °FWarm.5 mph43%29.80 "Hg43 mi
7:00 PM80 °FOvercast.7 mph39%29.79 "Hg40 mi
6:00 PM81 °FOvercast.7 mph38%29.80 "Hg18 mi
4:00 PM79 °FOvercast.6 mph40%29.84 "Hg43 mi
3:00 PM78 °FOvercast.3 mph43%29.87 "Hg28 mi
2:00 PM77 °FOvercast.5 mph43%29.88 "Hg25 mi
1:00 PM76 °FOvercast.3 mph47%29.89 "Hg37 mi
12:00 PM72 °FOvercast.3 mph49%29.92 "Hg43 mi
11:00 AM73 °FOvercast.3 mph50%29.91 "Hg37 mi
10:00 AM67 °FOvercast.3 mph57%29.93 "Hg31 mi
9:00 AM64 °FOvercast.3 mph61%29.95 "Hg43 mi
8:00 AM57 °FOvercast.2 mph66%29.96 "Hg43 mi
7:00 AM57 °FOvercast.2 mph63%29.96 "Hg43 mi
Weather by CustomWeather, © 2015

See weather overviewHow to use our weather pages